Location: Gorze? G�rny
(49.8500°N, 19.5000°E)
Time: 04:23:22
(UTC+00:00)

Cosmos 2297 Rocket - Pass Details

Date: 13 May 2021
Orbit: 838 x 845 km, 71.0° (Epoch: 23 June)

Event Time Altitude Azimuth Distance (km) Brightness Sun altitude
Rises 22:29:48 0° 333° (NNW) 3,413 6.5 -21.5°
Reaches altitude 10° 22:32:35 10° 345° (NNW) 2,476 5.7 -21.5°
Maximum altitude 22:37:30 29° 45° (NE) 1,505 3.9 -21.5°
Drops below altitude 10° 22:42:24 10° 105° (ESE) 2,467 4.5 -21.5°
Enters shadow 22:43:51 - 112° (ESE) 2,945 4.8 -21.5°
